Regional Weather Roundup
Issued by NWS

Home | Current Version | Previous Version | Text Only | Print | Product List | Glossary On
Versions: 1 2 3 4 5 6 7 8 9 10 11 12 13 14 15 16 17 18 19 20 21 22 23 24 25 26 27 28 29 30 31 32 33 34 35 36 37 38 39 40 41 42 43 44 45 46 47 48 49 50
000
ASUS46 KSEW 010410
RWRWA

WASHINGTON REGIONAL WEATHER ROUNDUP
NATIONAL WEATHER SERVICE SEATTLE WA
900 PM PDT MON AUG 31 2015

NOTE:"FAIR" INDICATES FEW OR NO CLOUDS BELOW 12,000 FEET WITH NO
SIGNIFICANT WEATHER AND/OR OBSTRUCTIONS TO VISIBILITY.

WAZ505-507>509-010500-
SEATTLE, TACOMA, EVERETT, AND VICINITY

CITY           SKY/WX    TMP DP  RH WIND       PRES   REMARKS
EVERETT        PTCLDY    61  53  75 S28G33    29.88R
BOEING FIELD   MOCLDY    64  55  72 S9        29.90F
RENTON           N/A    N/A N/A N/A MISG      29.90S
SEATAC AIRPORT MOCLDY    62  55  77 S13       29.92S
JBLM-MCCHORD   CLOUDY    65  54  67 S12       29.93R
PUYALLUP       CLOUDY    63  57  82 CALM      29.94S
BREMERTON      CLOUDY    61  57  88 S13       29.92F
JBLM-FT LEWIS  LGT RAIN  64  54  68 S12       29.92S
TACOMA NARROWS CLOUDY    63  54  72 S14       29.92F
$$

WAZ001-503-506-510-514-515-010500-
NORTH INTERIOR

CITY           SKY/WX    TMP DP  RH WIND       PRES   REMARKS
BELLINGHAM     LGT RAIN  62  57  83 S8G24     29.83R
FRIDAY HARBOR  CLOUDY    58  57  97 E3        29.84S
EASTSOUND      LGT RAIN  59  57  94 CALM      29.83R
PORT ANGELES   PTCLDY    60  55  83 S7        29.83S
PORT TOWNSEND  CLOUDY    59  57  94 CALM      29.83F
NAS WHIDBEY    CLOUDY    62  57  83 SE12      29.87R
ARLINGTON      CLOUDY    61  54  77 SE17      29.86S
BURLINGTON     CLOUDY    63  57  82 SE10G17   29.85R
$$

WAZ020-022-039-040-504-511-512-010500-
SOUTHWEST INTERIOR

CITY           SKY/WX    TMP DP  RH WIND       PRES   REMARKS
SHELTON        CLOUDY    62  57  83 SW13G22   29.89S
OLYMPIA        CLOUDY    63  54  72 S7        29.93S
CHEHALIS       CLOUDY    66  55  68 CALM      29.94S
KELSO          NOT AVBL
VANCOUVER      MOCLDY    67  52  58 W6        29.96R
SCAPPOOSE, OR  CLOUDY    66  52  60 W6        29.95R
PORTLAND, OR   CLOUDY    68  53  58 CALM      29.96R
$$

WAZ021-516-517-010500-
WASHINGTON COAST

CITY           SKY/WX    TMP DP  RH WIND       PRES   REMARKS
FORKS          CLOUDY    59  58  96 S7        29.86S
HOQUIAM        CLOUDY    62  58  86 S13       29.92S
ASTORIA, OR    CLOUDY    63  58  83 S7        29.94S
$$

WAZ019-023-024-040-518-519-010500-
CASCADE MOUNTAINS AND COLUMBIA GORGE

CITY           SKY/WX    TMP DP  RH WIND       PRES   REMARKS
TROUTDALE, OR  MOCLDY    67  53  61 CALM      29.96R
THE DALLES, OR MOCLDY    69  52  54 NW12      29.90R
$$

WAZ026-027-041>044-520-521-010500-
EAST SLOPES

CITY           SKY/WX    TMP DP  RH WIND       PRES   REMARKS
OMAK           CLOUDY    65  46  50 S14       29.79F
WENATCHEE      CLOUDY    70  41  34 W23G31    29.84S
ELLENSBURG     CLOUDY    62  48  60 NW13      29.89R
YAKIMA         CLOUDY    68  43  40 W7        29.87S
$$

WAZ028-034-035-010500-
COLUMBIA BASIN

CITY           SKY/WX    TMP DP  RH WIND       PRES   REMARKS
EPHRATA        CLOUDY    69  45  41 W7        29.82F
MOSES LAKE     MOCLDY    69  47  45 W9        29.84S
PASCO          MOCLDY    69  48  47 SW8       29.86R
HERMISTON, OR  MOCLDY    69  48  47 W12       29.88R
$$

WAZ036>038-010500-
NORTHEAST WASHINGTON

CITY           SKY/WX    TMP DP  RH WIND       PRES   REMARKS
SPOKANE GEIGER MOCLDY    65  45  48 S8        29.88R
SPOKANE FELTS  MOCLDY    68  46  45 SW9       29.87S
FAIRCHILD AFB  MOCLDY    62  45  53 S7        29.87F
COEURDALENE,ID MOCLDY    63  45  51 S8        29.88S
DEER PARK      PTCLDY    63  46  54 S8        29.86S
$$

WAZ029>033-010500-
SOUTHEAST WASHINGTON

CITY           SKY/WX    TMP DP  RH WIND       PRES   REMARKS
PULLMAN        MOCLDY    54  43  66 CALM      29.94R
LEWISTON, ID   PTCLDY    71  44  37 CALM      29.87R
WALLA WALLA    MOCLDY    70  47  43 S5        29.88R
PENDLETON, OR  MOCLDY    66  46  48 W12       29.91R
$$



USA.gov is the U.S. government's official web portal to all federal, state and local government web resources and services.